Time,TemperatureF,DewpointF,PressureIn,WindDirection,WindDirectionDegrees,WindSpeedMPH,WindSpeedGustMPH,Humidity,HourlyPrecipIn,Conditions,Clouds,dailyrainin,SolarRadiationWatts/m^2,SoftwareType,DateUTC
2013-02-19 03:00:00,32.0,17.0,29.90,SE,143,12.0,-999.0,53,-99.99,,,-99.99,0.090000,,2013-02-19 08:00:00,
2013-02-19 03:52:00,32.0,17.0,29.90,SE,143,12.0,-999.0,53,-99.99,,,-99.99,0.090000,,2013-02-19 08:52:00,
2013-02-19 04:00:00,33.0,17.0,29.86,SE,146,13.0,-999.0,53,-99.99,,,-99.99,0.080000,,2013-02-19 09:00:00,
2013-02-19 04:53:00,33.0,17.0,29.86,SE,146,13.0,-999.0,53,-99.99,,,-99.99,0.080000,,2013-02-19 09:53:00,
2013-02-19 05:00:00,33.0,19.0,29.82,SSE,155,13.0,-999.0,57,-99.99,,,-99.99,0.080000,,2013-02-19 10:00:00,
2013-02-19 05:52:00,33.0,19.0,29.82,SSE,155,13.0,-999.0,57,-99.99,,,-99.99,0.080000,,2013-02-19 10:52:00,
2013-02-19 06:00:00,33.0,18.0,29.79,SSE,152,11.0,-999.0,54,-99.99,,,-99.99,0.050000,,2013-02-19 11:00:00,
2013-02-19 06:52:00,33.0,18.0,29.79,SSE,152,11.0,-999.0,54,-99.99,,,-99.99,0.050000,,2013-02-19 11:52:00,
2013-02-19 07:00:00,33.0,20.0,29.76,SSE,158,11.0,-999.0,57,-99.99,,,-99.99,0.880000,,2013-02-19 12:00:00,
2013-02-19 07:53:00,33.0,20.0,29.76,SSE,158,11.0,-999.0,57,-99.99,,,-99.99,0.880000,,2013-02-19 12:53:00,
2013-02-19 08:00:00,34.0,20.0,29.74,SSE,160,7.0,-999.0,55,-99.99,,,-99.99,16.610001,,2013-02-19 13:00:00,
2013-02-19 08:52:00,34.0,20.0,29.74,SSE,160,7.0,-999.0,55,-99.99,,,-99.99,16.610001,,2013-02-19 13:52:00,
2013-02-19 09:00:00,37.0,21.0,29.72,SSE,168,11.0,-999.0,53,-99.99,,,-99.99,33.150002,,2013-02-19 14:00:00,
2013-02-19 09:52:00,37.0,21.0,29.72,SSE,168,11.0,-999.0,53,-99.99,,,-99.99,33.150002,,2013-02-19 14:52:00,
2013-02-19 10:00:00,34.0,28.0,29.70,South,169,14.0,-999.0,76,-99.99,,,-99.99,47.139999,,2013-02-19 15:00:00,
2013-02-19 10:52:00,34.0,28.0,29.70,South,169,14.0,-999.0,76,-99.99,,,-99.99,47.139999,,2013-02-19 15:52:00,
2013-02-19 11:00:00,35.0,30.0,29.68,SSE,163,15.0,-999.0,84,-99.99,,,-99.99,54.700001,,2013-02-19 16:00:00,
2013-02-19 11:52:00,35.0,30.0,29.68,SSE,163,15.0,-999.0,84,-99.99,,,-99.99,54.700001,,2013-02-19 16:52:00,
2013-02-19 12:00:00,34.0,31.0,29.66,SSE,150,11.0,-999.0,89,-99.99,,,-99.99,83.099998,,2013-02-19 17:00:00,
2013-02-19 12:52:00,34.0,31.0,29.66,SSE,150,11.0,-999.0,89,-99.99,,,-99.99,83.099998,,2013-02-19 17:52:00,
2013-02-19 13:00:00,35.0,32.0,29.63,SSE,149,12.0,-999.0,88,-99.99,,,-99.99,83.500000,,2013-02-19 18:00:00,
2013-02-19 13:52:00,35.0,32.0,29.63,SSE,149,12.0,-999.0,88,-99.99,,,-99.99,83.500000,,2013-02-19 18:52:00,
2013-02-19 14:00:00,37.0,32.0,29.59,SSE,153,12.0,-999.0,83,-99.99,,,-99.99,214.000000,,2013-02-19 19:00:00,
2013-02-19 14:52:00,37.0,32.0,29.59,SSE,153,12.0,-999.0,83,-99.99,,,-99.99,214.000000,,2013-02-19 19:52:00,
2013-02-19 15:00:00,37.0,33.0,29.59,SSE,160,13.0,-999.0,83,-99.99,,,-99.99,262.500000,,2013-02-19 20:00:00,
2013-02-19 15:52:00,37.0,33.0,29.59,SSE,160,13.0,-999.0,83,-99.99,,,-99.99,262.500000,,2013-02-19 20:52:00,
2013-02-19 16:00:00,34.0,32.0,29.64,SW,221,8.0,-999.0,94,-99.99,,,-99.99,30.530001,,2013-02-19 21:00:00,
2013-02-19 16:52:00,34.0,32.0,29.64,SW,221,8.0,-999.0,94,-99.99,,,-99.99,30.530001,,2013-02-19 21:52:00,
2013-02-19 17:00:00,32.0,30.0,29.66,WNW,285,7.0,-999.0,93,-99.99,,,-99.99,13.820000,,2013-02-19 22:00:00,
2013-02-19 17:52:00,32.0,30.0,29.66,WNW,285,7.0,-999.0,93,-99.99,,,-99.99,13.820000,,2013-02-19 22:52:00,
2013-02-19 18:00:00,31.0,27.0,29.69,West,278,10.0,-999.0,84,-99.99,,,-99.99,6.860000,,2013-02-19 23:00:00,
2013-02-19 18:52:00,31.0,27.0,29.69,West,278,10.0,-999.0,84,-99.99,,,-99.99,6.860000,,2013-02-19 23:52:00,
2013-02-19 19:00:00,30.0,25.0,29.71,West,273,11.0,-999.0,79,-99.99,,,-99.99,0.050000,,2013-02-20 00:00:00,
2013-02-19 19:52:00,30.0,25.0,29.71,West,273,11.0,-999.0,79,-99.99,,,-99.99,0.050000,,2013-02-20 00:52:00,
2013-02-19 20:00:00,31.0,23.0,29.71,West,260,9.0,-999.0,73,-99.99,,,-99.99,0.040000,,2013-02-20 01:00:00,
2013-02-19 20:52:00,31.0,23.0,29.71,West,260,9.0,-999.0,73,-99.99,,,-99.99,0.040000,,2013-02-20 01:52:00,
2013-02-19 21:00:00,29.0,23.0,29.73,West,277,9.0,-999.0,77,-99.99,,,-99.99,0.040000,,2013-02-20 02:00:00,
2013-02-19 21:52:00,29.0,23.0,29.73,West,277,9.0,-999.0,77,-99.99,,,-99.99,0.040000,,2013-02-20 02:52:00,
2013-02-19 22:00:00,27.0,17.0,29.75,West,263,12.0,-999.0,65,-99.99,,,-99.99,0.080000,,2013-02-20 03:00:00,
2013-02-19 22:52:00,27.0,17.0,29.75,West,263,12.0,-999.0,65,-99.99,,,-99.99,0.080000,,2013-02-20 03:52:00,
2013-02-19 23:00:00,26.0,15.0,29.75,WSW,255,11.0,-999.0,61,-99.99,,,-99.99,0.070000,,2013-02-20 04:00:00,
2013-02-19 23:52:00,26.0,15.0,29.75,WSW,255,11.0,-999.0,61,-99.99,,,-99.99,0.070000,,2013-02-20 04:52:00,